Вернуться в каталог

COSMOS 397 DEB

АктивенLEO
NORAD 5017·DEBRIS·🇷🇺 Russia

Запущен Feb 25, 1971 с Baikonur Cosmodrome

Loading…

Ближайшие Пролёты (ближайшие 24 часа)

TLE

СвежийSource: Space-Track

Эпоха: Sep 14, 2026, 08:31 UTC

1 05017U 71015L   26257.35509499  .00001283  00000-0  46351-3 0  9999
2 05017  65.7068 230.6710 0699039  89.6760 278.4304 13.48978690651597

Отслеживайте COSMOS 397 DEB в реальном времени с AllMySat

Download on the App Store